Time,TemperatureF,DewpointF,PressureIn,WindDirection,WindDirectionDegrees,WindSpeedMPH,WindSpeedGustMPH,Humidity,HourlyPrecipIn,Conditions,Clouds,dailyrainin,SoftwareType,DateUTC
2013-05-02 00:01:00,45.1,35.9,30.26,North,357,5.0,5.0,70,0.00,,OVC050,0.00,VWS V14.01,2013-05-02 04:01:00,
2013-05-02 00:06:00,45.0,35.8,30.26,North,349,3.0,4.0,70,0.00,,OVC009,0.00,VWS V14.01,2013-05-02 04:06:00,
2013-05-02 00:11:00,44.8,36.0,30.26,NW,305,4.0,4.0,71,0.00,,OVC009,0.00,VWS V14.01,2013-05-02 04:11:00,
2013-05-02 00:16:00,44.6,36.2,30.26,NNW,345,3.0,4.0,72,0.00,,OVC009,0.00,VWS V14.01,2013-05-02 04:16:00,
2013-05-02 00:22:00,44.6,35.8,30.27,NW,308,4.0,4.0,71,0.00,,OVC009,0.00,VWS V14.01,2013-05-02 04:22:00,
2013-05-02 00:27:00,44.7,36.2,30.26,North,7,2.0,4.0,72,0.00,,OVC009,0.00,VWS V14.01,2013-05-02 04:27:00,
2013-05-02 00:32:00,44.6,36.2,30.26,North,352,3.0,4.0,72,0.00,,OVC009,0.00,VWS V14.01,2013-05-02 04:32:00,
2013-05-02 00:37:00,44.7,36.2,30.27,NNW,327,3.0,3.0,72,0.00,,OVC009,0.00,VWS V14.01,2013-05-02 04:37:00,
2013-05-02 00:42:00,44.7,36.2,30.27,North,357,3.0,3.0,72,0.00,,OVC009,0.00,VWS V14.01,2013-05-02 04:42:00,
2013-05-02 00:47:00,44.6,36.2,30.26,NNE,18,4.0,4.0,72,0.00,,OVC009,0.00,VWS V14.01,2013-05-02 04:47:00,
2013-05-02 00:52:00,44.6,36.2,30.26,North,350,1.0,2.0,72,0.00,,OVC009,0.00,VWS V14.01,2013-05-02 04:52:00,
2013-05-02 00:57:00,44.4,36.0,30.26,North,2,3.0,4.0,72,0.00,,OVC009,0.00,VWS V14.01,2013-05-02 04:57:00,
2013-05-02 01:02:00,44.2,35.8,30.26,NW,318,3.0,4.0,72,0.00,,-RA,0.00,VWS V14.01,2013-05-02 05:02:00,
2013-05-02 01:07:00,44.1,36.0,30.26,NNW,340,1.0,2.0,73,0.00,,-RA,0.00,VWS V14.01,2013-05-02 05:07:00,
2013-05-02 01:12:00,43.9,35.8,30.26,North,350,4.0,4.0,73,0.00,,-RA,0.00,VWS V14.01,2013-05-02 05:12:00,
2013-05-02 01:17:00,43.7,36.0,30.27,NNW,344,6.0,6.0,74,0.00,,-RA,0.00,VWS V14.01,2013-05-02 05:17:00,
2013-05-02 01:22:00,43.6,35.9,30.27,North,357,5.0,6.0,74,0.00,,-RA,0.00,VWS V14.01,2013-05-02 05:22:00,
2013-05-02 01:27:00,43.5,35.8,30.27,NNW,345,3.0,4.0,74,0.00,,-RA,0.00,VWS V14.01,2013-05-02 05:27:00,
2013-05-02 01:32:00,43.3,35.9,30.26,North,357,3.0,4.0,75,0.00,,-RA,0.00,VWS V14.01,2013-05-02 05:32:00,
2013-05-02 01:37:00,43.0,35.6,30.27,North,357,4.0,5.0,75,0.00,,-RA,0.00,VWS V14.01,2013-05-02 05:37:00,
2013-05-02 01:42:00,42.8,35.8,30.27,North,357,3.0,4.0,76,0.00,,-RA,0.00,VWS V14.01,2013-05-02 05:42:00,
2013-05-02 01:47:00,42.7,35.7,30.26,NW,321,3.0,5.0,76,0.00,,-RA,0.00,VWS V14.01,2013-05-02 05:47:00,
2013-05-02 01:52:00,42.5,35.8,30.26,NNW,342,2.0,3.0,77,0.00,,-RA,0.00,VWS V14.01,2013-05-02 05:52:00,
2013-05-02 01:57:00,42.3,35.6,30.26,NW,306,3.0,3.0,77,0.00,,-RA,0.00,VWS V14.01,2013-05-02 05:57:00,
2013-05-02 02:02:00,42.1,35.8,30.26,North,357,3.0,3.0,78,0.00,,OVC009,0.00,VWS V14.01,2013-05-02 06:02:00,
2013-05-02 02:07:00,41.8,35.8,30.26,NNW,342,4.0,4.0,79,0.00,,OVC009,0.00,VWS V14.01,2013-05-02 06:07:00,
2013-05-02 02:13:00,41.7,35.7,30.25,NW,319,2.0,3.0,79,0.00,,OVC009,0.00,VWS V14.01,2013-05-02 06:13:00,
2013-05-02 02:18:00,41.6,35.6,30.25,NNW,344,3.0,4.0,79,0.00,,OVC009,0.00,VWS V14.01,2013-05-02 06:18:00,
2013-05-02 02:23:00,41.5,35.8,30.25,NNW,340,1.0,2.0,80,0.00,,OVC009,0.00,VWS V14.01,2013-05-02 06:23:00,
2013-05-02 02:28:00,41.3,35.3,30.25,North,2,2.0,2.0,79,0.00,,OVC009,0.00,VWS V14.01,2013-05-02 06:28:00,
2013-05-02 02:33:00,41.3,35.3,30.25,North,357,3.0,3.0,79,0.00,,OVC009,0.00,VWS V14.01,2013-05-02 06:33:00,
2013-05-02 02:38:00,41.2,35.2,30.25,North,357,3.0,4.0,79,0.00,,OVC009,0.00,VWS V14.01,2013-05-02 06:38:00,
2013-05-02 02:43:00,41.1,35.1,30.25,NNW,327,2.0,3.0,79,0.00,,OVC009,0.00,VWS V14.01,2013-05-02 06:43:00,
2013-05-02 02:48:00,41.0,35.0,30.25,NNW,338,1.0,2.0,79,0.00,,OVC009,0.00,VWS V14.01,2013-05-02 06:48:00,
2013-05-02 02:53:00,40.9,35.2,30.25,NNW,327,2.0,3.0,80,0.00,,OVC009,0.00,VWS V14.01,2013-05-02 06:53:00,
2013-05-02 02:58:00,40.8,35.1,30.25,NW,323,2.0,2.0,80,0.00,,OVC009,0.00,VWS V14.01,2013-05-02 06:58:00,
2013-05-02 03:03:00,40.8,35.4,30.25,North,357,3.0,3.0,81,0.00,,OVC045,0.00,VWS V14.01,2013-05-02 07:03:00,
2013-05-02 03:08:00,40.8,35.1,30.25,NNW,345,3.0,3.0,80,0.00,,OVC045,0.00,VWS V14.01,2013-05-02 07:08:00,
2013-05-02 03:13:00,40.7,35.3,30.25,NW,325,1.0,2.0,81,0.00,,OVC045,0.00,VWS V14.01,2013-05-02 07:13:00,
2013-05-02 03:18:00,40.6,35.2,30.25,North,357,1.0,2.0,81,0.00,,OVC045,0.00,VWS V14.01,2013-05-02 07:18:00,
2013-05-02 03:23:00,40.3,35.2,30.24,North,350,4.0,4.0,82,0.00,,OVC045,0.00,VWS V14.01,2013-05-02 07:23:00,
2013-05-02 03:28:00,40.3,35.6,30.24,NW,312,3.0,5.0,83,0.00,,OVC045,0.00,VWS V14.01,2013-05-02 07:28:00,
2013-05-02 03:33:00,40.2,35.5,30.24,NNW,333,3.0,3.0,83,0.00,,OVC045,0.00,VWS V14.01,2013-05-02 07:33:00,
2013-05-02 03:38:00,40.1,35.4,30.24,NNW,345,2.0,4.0,83,0.00,,OVC045,0.00,VWS V14.01,2013-05-02 07:38:00,
2013-05-02 03:43:00,40.0,35.6,30.24,North,357,2.0,4.0,84,0.00,,OVC045,0.00,VWS V14.01,2013-05-02 07:43:00,
2013-05-02 03:48:00,40.0,35.6,30.24,NW,323,3.0,3.0,84,0.00,,OVC045,0.00,VWS V14.01,2013-05-02 07:48:00,
2013-05-02 03:53:00,39.9,35.5,30.24,NNW,343,1.0,2.0,84,0.00,,OVC045,0.00,VWS V14.01,2013-05-02 07:53:00,
2013-05-02 03:58:00,39.8,35.7,30.24,NW,325,2.0,2.0,85,0.00,,OVC045,0.00,VWS V14.01,2013-05-02 07:58:00,
2013-05-02 04:03:00,39.6,35.5,30.24,NW,325,1.0,1.0,85,0.00,,OVC036,0.00,VWS V14.01,2013-05-02 08:03:00,
2013-05-02 04:08:00,39.4,35.3,30.24,NW,315,1.0,2.0,85,0.00,,OVC036,0.00,VWS V14.01,2013-05-02 08:08:00,
2013-05-02 04:13:00,39.3,35.5,30.24,NW,321,2.0,2.0,86,0.00,,OVC036,0.00,VWS V14.01,2013-05-02 08:13:00,
2013-05-02 04:19:00,39.4,35.6,30.24,NW,317,1.0,1.0,86,0.00,,OVC036,0.00,VWS V14.01,2013-05-02 08:19:00,
2013-05-02 04:24:00,39.4,35.6,30.24,NW,317,1.0,1.0,86,0.00,,OVC036,0.00,VWS V14.01,2013-05-02 08:24:00,
2013-05-02 04:29:00,39.3,35.5,30.24,NW,325,0.0,1.0,86,0.00,,OVC036,0.00,VWS V14.01,2013-05-02 08:29:00,
2013-05-02 04:34:00,39.2,35.4,30.24,NW,320,1.0,1.0,86,0.00,,OVC036,0.00,VWS V14.01,2013-05-02 08:34:00,
2013-05-02 04:39:00,38.9,35.4,30.24,NW,325,1.0,2.0,87,0.00,,OVC036,0.00,VWS V14.01,2013-05-02 08:39:00,
2013-05-02 04:44:00,38.9,35.4,30.25,NNW,327,1.0,1.0,87,0.00,,OVC036,0.00,VWS V14.01,2013-05-02 08:44:00,
2013-05-02 04:49:00,38.9,35.4,30.24,NW,325,0.0,1.0,87,0.00,,OVC036,0.00,VWS V14.01,2013-05-02 08:49:00,
2013-05-02 04:54:00,38.6,35.4,30.25,NW,318,1.0,1.0,88,0.00,,OVC036,0.00,VWS V14.01,2013-05-02 08:54:00,
2013-05-02 04:59:00,38.5,35.3,30.24,NW,318,1.0,2.0,88,0.00,,OVC036,0.00,VWS V14.01,2013-05-02 08:59:00,
2013-05-02 05:04:00,38.6,35.4,30.24,NW,318,1.0,2.0,88,0.00,,OVC038,0.00,VWS V14.01,2013-05-02 09:04:00,
2013-05-02 05:09:00,38.4,35.2,30.24,NW,318,0.0,1.0,88,0.00,,OVC038,0.00,VWS V14.01,2013-05-02 09:09:00,
2013-05-02 05:14:00,38.3,35.3,30.24,NW,318,0.0,0.0,89,0.00,,OVC038,0.00,VWS V14.01,2013-05-02 09:14:00,
2013-05-02 05:19:00,38.0,35.0,30.24,NW,318,0.0,0.0,89,0.00,,OVC038,0.00,VWS V14.01,2013-05-02 09:19:00,
2013-05-02 05:24:00,38.1,35.2,30.24,NW,318,0.0,1.0,89,0.00,,OVC038,0.00,VWS V14.01,2013-05-02 09:24:00,
2013-05-02 05:29:00,37.9,35.0,30.24,NW,318,1.0,1.0,89,0.00,,OVC038,0.00,VWS V14.01,2013-05-02 09:29:00,
2013-05-02 05:34:00,38.0,35.0,30.24,NW,318,1.0,1.0,89,0.00,,OVC038,0.00,VWS V14.01,2013-05-02 09:34:00,
2013-05-02 05:39:00,38.0,35.0,30.24,NW,318,0.0,0.0,89,0.00,,OVC038,0.00,VWS V14.01,2013-05-02 09:39:00,
2013-05-02 05:44:00,37.8,35.1,30.24,NW,318,0.0,0.0,90,0.00,,OVC038,0.00,VWS V14.01,2013-05-02 09:44:00,
2013-05-02 05:49:00,37.7,35.0,30.24,NW,318,0.0,1.0,90,0.00,,OVC038,0.00,VWS V14.01,2013-05-02 09:49:00,
2013-05-02 05:54:00,37.8,35.1,30.24,NW,318,0.0,0.0,90,0.00,,OVC038,0.00,VWS V14.01,2013-05-02 09:54:00,
2013-05-02 05:59:00,37.6,34.9,30.24,NW,318,0.0,0.0,90,0.00,,OVC038,0.00,VWS V14.01,2013-05-02 09:59:00,
2013-05-02 06:04:00,37.3,34.6,30.24,NW,318,0.0,0.0,90,0.00,,,0.00,VWS V14.01,2013-05-02 10:04:00,
2013-05-02 06:09:00,37.3,34.9,30.24,NW,318,0.0,0.0,91,0.00,,,0.00,VWS V14.01,2013-05-02 10:09:00,
2013-05-02 06:14:00,37.1,34.7,30.24,NW,318,0.0,0.0,91,0.00,,,0.00,VWS V14.01,2013-05-02 10:14:00,
2013-05-02 06:19:00,36.9,34.5,30.25,NW,318,0.0,0.0,91,0.00,,,0.00,VWS V14.01,2013-05-02 10:19:00,
2013-05-02 06:24:00,36.9,34.5,30.25,NW,318,0.0,0.0,91,0.00,,,0.00,VWS V14.01,2013-05-02 10:24:00,
2013-05-02 06:29:00,36.9,34.5,30.25,NW,318,0.0,0.0,91,0.00,,,0.00,VWS V14.01,2013-05-02 10:29:00,
2013-05-02 06:34:00,36.9,34.8,30.25,NW,318,0.0,0.0,92,0.00,,,0.00,VWS V14.01,2013-05-02 10:34:00,
2013-05-02 06:39:00,37.1,34.7,30.25,NW,318,0.0,0.0,91,0.00,,,0.00,VWS V14.01,2013-05-02 10:39:00,
2013-05-02 06:44:00,36.9,34.8,30.25,NW,318,1.0,1.0,92,0.00,,,0.00,VWS V14.01,2013-05-02 10:44:00,
2013-05-02 06:49:00,37.6,35.8,30.25,NNW,329,2.0,3.0,93,0.00,,,0.00,VWS V14.01,2013-05-02 10:49:00,
2013-05-02 06:54:00,38.2,36.1,30.26,NW,323,1.0,2.0,92,0.00,,,0.00,VWS V14.01,2013-05-02 10:54:00,
2013-05-02 06:59:00,38.4,36.3,30.25,NNW,341,2.0,2.0,92,0.00,,,0.00,VWS V14.01,2013-05-02 10:59:00,
2013-05-02 07:04:00,38.7,36.6,30.25,NNW,336,1.0,2.0,92,0.00,,,0.00,VWS V14.01,2013-05-02 11:04:00,
2013-05-02 07:09:00,38.8,36.7,30.25,NW,314,1.0,2.0,92,0.00,,,0.00,VWS V14.01,2013-05-02 11:09:00,
2013-05-02 07:14:00,38.9,36.5,30.25,NW,323,2.0,3.0,91,0.00,,,0.00,VWS V14.01,2013-05-02 11:14:00,
2013-05-02 07:19:00,39.0,36.6,30.25,NW,321,3.0,4.0,91,0.00,,,0.00,VWS V14.01,2013-05-02 11:19:00,
2013-05-02 07:24:00,39.1,36.7,30.26,NNW,344,3.0,3.0,91,0.00,,,0.00,VWS V14.01,2013-05-02 11:24:00,
2013-05-02 07:29:00,39.2,36.8,30.26,NW,317,1.0,2.0,91,0.00,,,0.00,VWS V14.01,2013-05-02 11:29:00,
2013-05-02 07:34:00,39.4,37.0,30.26,NW,319,1.0,1.0,91,0.00,,,0.00,VWS V14.01,2013-05-02 11:34:00,
2013-05-02 07:39:00,39.7,37.0,30.26,NW,310,3.0,3.0,90,0.00,,,0.00,VWS V14.01,2013-05-02 11:39:00,
2013-05-02 07:44:00,40.0,37.3,30.26,NNW,329,2.0,2.0,90,0.00,,,0.00,VWS V14.01,2013-05-02 11:44:00,
2013-05-02 07:49:00,40.2,37.5,30.26,WNW,284,4.0,4.0,90,0.00,,,0.00,VWS V14.01,2013-05-02 11:49:00,
2013-05-02 07:55:00,40.8,38.1,30.26,NNW,328,2.0,2.0,90,0.00,,,0.00,VWS V14.01,2013-05-02 11:55:00,
2013-05-02 08:00:00,41.2,37.9,30.26,NNW,327,1.0,2.0,88,0.00,,,0.00,VWS V14.01,2013-05-02 12:00:00,
2013-05-02 08:05:00,41.7,38.1,30.27,NW,310,2.0,2.0,87,0.00,,,0.00,VWS V14.01,2013-05-02 12:05:00,
2013-05-02 08:10:00,41.8,37.9,30.27,NW,316,2.0,3.0,86,0.00,,,0.00,VWS V14.01,2013-05-02 12:10:00,
2013-05-02 08:15:00,42.1,37.9,30.27,WNW,296,4.0,4.0,85,0.00,,,0.00,VWS V14.01,2013-05-02 12:15:00,
2013-05-02 08:20:00,42.7,38.5,30.27,NNW,338,4.0,4.0,85,0.00,,,0.00,VWS V14.01,2013-05-02 12:20:00,
2013-05-02 08:25:00,42.9,38.4,30.27,WNW,298,4.0,7.0,84,0.00,,,0.00,VWS V14.01,2013-05-02 12:25:00,
2013-05-02 08:30:00,43.1,38.3,30.27,NNW,331,4.0,4.0,83,0.00,,,0.00,VWS V14.01,2013-05-02 12:30:00,
2013-05-02 08:35:00,43.9,38.8,30.27,North,7,3.0,3.0,82,0.00,,,0.00,VWS V14.01,2013-05-02 12:35:00,
2013-05-02 08:40:00,43.7,38.3,30.28,North,357,4.0,5.0,81,0.00,,,0.00,VWS V14.01,2013-05-02 12:40:00,
2013-05-02 08:45:00,43.9,39.1,30.27,WNW,302,0.0,1.0,83,0.00,,,0.00,VWS V14.01,2013-05-02 12:45:00,
2013-05-02 08:50:00,44.7,38.6,30.28,NNW,333,2.0,3.0,79,0.00,,,0.00,VWS V14.01,2013-05-02 12:50:00,
2013-05-02 08:55:00,44.3,38.2,30.28,NE,40,3.0,3.0,79,0.00,,,0.00,VWS V14.01,2013-05-02 12:55:00,
2013-05-02 09:00:00,45.0,39.2,30.28,North,352,3.0,5.0,80,0.00,,,0.00,VWS V14.01,2013-05-02 13:00:00,
2013-05-02 09:05:00,44.6,38.8,30.28,NNW,332,2.0,3.0,80,0.00,,,0.00,VWS V14.01,2013-05-02 13:05:00,
2013-05-02 09:10:00,44.9,38.5,30.28,NW,313,3.0,4.0,78,0.00,,,0.00,VWS V14.01,2013-05-02 13:10:00,
2013-05-02 09:15:00,45.0,39.2,30.27,North,353,1.0,2.0,80,0.00,,,0.00,VWS V14.01,2013-05-02 13:15:00,
2013-05-02 09:20:00,45.3,38.9,30.27,WNW,283,1.0,2.0,78,0.00,,,0.00,VWS V14.01,2013-05-02 13:20:00,
2013-05-02 09:25:00,46.6,40.1,30.27,NNE,23,2.0,2.0,78,0.00,,,0.00,VWS V14.01,2013-05-02 13:25:00,
2013-05-02 09:30:00,47.2,40.4,30.27,NNW,329,0.0,1.0,77,0.00,,,0.00,VWS V14.01,2013-05-02 13:30:00,
2013-05-02 09:35:00,47.8,39.6,30.27,ENE,61,2.0,2.0,73,0.00,,,0.00,VWS V14.01,2013-05-02 13:35:00,
2013-05-02 09:40:00,47.3,39.8,30.27,NW,319,1.0,1.0,75,0.00,,,0.00,VWS V14.01,2013-05-02 13:40:00,
2013-05-02 09:45:00,48.7,40.8,30.27,North,351,2.0,3.0,74,0.00,,,0.00,VWS V14.01,2013-05-02 13:45:00,
2013-05-02 09:50:00,49.3,40.7,30.27,NNE,22,4.0,4.0,72,0.00,,,0.00,VWS V14.01,2013-05-02 13:50:00,
2013-05-02 09:55:00,49.8,40.8,30.27,NNW,329,2.0,3.0,71,0.00,,,0.00,VWS V14.01,2013-05-02 13:55:00,
2013-05-02 10:00:00,49.6,41.0,30.26,North,2,2.0,2.0,72,0.00,,,0.00,VWS V14.01,2013-05-02 14:00:00,
2013-05-02 10:05:00,51.0,41.2,30.26,NNW,327,3.0,3.0,69,0.00,,,0.00,VWS V14.01,2013-05-02 14:05:00,
2013-05-02 10:11:00,50.1,41.1,30.26,ENE,71,2.0,3.0,71,0.00,,,0.00,VWS V14.01,2013-05-02 14:11:00,
2013-05-02 10:16:00,49.9,40.9,30.26,SE,125,3.0,3.0,71,0.00,,,0.00,VWS V14.01,2013-05-02 14:16:00,
2013-05-02 10:21:00,50.2,41.2,30.26,NW,307,3.0,3.0,71,0.00,,,0.00,VWS V14.01,2013-05-02 14:21:00,
2013-05-02 10:26:00,49.1,40.5,30.26,WNW,294,4.0,4.0,72,0.00,,,0.00,VWS V14.01,2013-05-02 14:26:00,
2013-05-02 10:31:00,48.9,40.6,30.26,West,272,1.0,2.0,73,0.00,,,0.00,VWS V14.01,2013-05-02 14:31:00,
2013-05-02 10:36:00,49.4,40.8,30.26,NW,309,1.0,1.0,72,0.00,,,0.00,VWS V14.01,2013-05-02 14:36:00,
2013-05-02 10:41:00,50.2,41.2,30.26,WSW,254,1.0,2.0,71,0.00,,,0.00,VWS V14.01,2013-05-02 14:41:00,
2013-05-02 10:46:00,50.8,42.1,30.26,South,172,1.0,1.0,72,0.00,,,0.00,VWS V14.01,2013-05-02 14:46:00,
2013-05-02 10:51:00,51.5,42.4,30.26,WNW,299,1.0,1.0,71,0.00,,,0.00,VWS V14.01,2013-05-02 14:51:00,
2013-05-02 10:56:00,52.5,43.0,30.26,NNW,346,3.0,4.0,70,0.00,,,0.00,VWS V14.01,2013-05-02 14:56:00,
2013-05-02 11:01:00,53.3,42.2,30.26,NE,44,4.0,4.0,66,0.00,,,0.00,VWS V14.01,2013-05-02 15:01:00,
2013-05-02 11:06:00,53.9,42.8,30.26,North,7,2.0,2.0,66,0.00,,OVC003,0.00,VWS V14.01,2013-05-02 15:06:00,
2013-05-02 11:11:00,55.1,43.6,30.26,ENE,61,0.0,2.0,65,0.00,,OVC003,0.00,VWS V14.01,2013-05-02 15:11:00,
2013-05-02 11:16:00,54.4,42.9,30.25,East,90,2.0,4.0,65,0.00,,OVC003,0.00,VWS V14.01,2013-05-02 15:16:00,
2013-05-02 11:21:00,55.0,44.3,30.25,ESE,111,3.0,4.0,67,0.00,,OVC003,0.00,VWS V14.01,2013-05-02 15:21:00,
2013-05-02 11:26:00,55.9,43.9,30.25,ESE,118,4.0,4.0,64,0.00,,OVC003,0.00,VWS V14.01,2013-05-02 15:26:00,
2013-05-02 11:31:00,55.6,44.0,30.25,ENE,71,5.0,5.0,65,0.00,,OVC003,0.00,VWS V14.01,2013-05-02 15:31:00,
2013-05-02 11:36:00,56.3,45.1,30.25,SSE,148,2.0,3.0,66,0.00,,OVC003,0.00,VWS V14.01,2013-05-02 15:36:00,
2013-05-02 11:41:00,56.9,44.9,30.25,SSE,157,1.0,1.0,64,0.00,,OVC003,0.00,VWS V14.01,2013-05-02 15:41:00,
2013-05-02 11:46:00,57.3,44.8,30.25,NE,34,3.0,4.0,63,0.00,,OVC003,0.00,VWS V14.01,2013-05-02 15:46:00,
2013-05-02 11:51:00,57.7,44.8,30.25,NNE,24,1.0,3.0,62,0.00,,OVC003,0.00,VWS V14.01,2013-05-02 15:51:00,
2013-05-02 11:56:00,57.8,44.5,30.25,SE,130,4.0,7.0,61,0.00,,OVC003,0.00,VWS V14.01,2013-05-02 15:56:00,
2013-05-02 12:01:00,57.8,44.5,30.25,SSE,150,3.0,3.0,61,0.00,,OVC003,0.00,VWS V14.01,2013-05-02 16:01:00,
2013-05-02 12:06:00,58.3,44.9,30.25,SE,130,7.0,8.0,61,0.00,,,0.00,VWS V14.01,2013-05-02 16:06:00,
2013-05-02 12:11:00,58.4,44.6,30.24,SSE,155,3.0,3.0,60,0.00,,,0.00,VWS V14.01,2013-05-02 16:11:00,
2013-05-02 12:16:00,58.5,45.1,30.24,SE,124,0.0,1.0,61,0.00,,,0.00,VWS V14.01,2013-05-02 16:16:00,
2013-05-02 12:22:00,59.3,45.9,30.24,East,87,5.0,5.0,61,0.00,,,0.00,VWS V14.01,2013-05-02 16:22:00,
2013-05-02 12:27:00,59.6,45.7,30.24,ESE,105,6.0,7.0,60,0.00,,,0.00,VWS V14.01,2013-05-02 16:27:00,
2013-05-02 12:32:00,59.2,45.8,30.24,SE,143,2.0,2.0,61,0.00,,,0.00,VWS V14.01,2013-05-02 16:32:00,
2013-05-02 12:37:00,59.5,46.1,30.24,SE,134,1.0,2.0,61,0.00,,,0.00,VWS V14.01,2013-05-02 16:37:00,
2013-05-02 12:42:00,60.7,48.5,30.24,SE,134,2.0,2.0,64,0.00,,,0.00,VWS V14.01,2013-05-02 16:42:00,
2013-05-02 12:47:00,61.6,48.5,30.24,ESE,107,6.0,7.0,62,0.00,,,0.00,VWS V14.01,2013-05-02 16:47:00,
2013-05-02 12:52:00,61.7,47.7,30.23,SSE,153,4.0,4.0,60,0.00,,,0.00,VWS V14.01,2013-05-02 16:52:00,
2013-05-02 12:57:00,62.5,47.5,30.23,SE,144,8.0,8.0,58,0.00,,,0.00,VWS V14.01,2013-05-02 16:57:00,
2013-05-02 13:02:00,61.9,47.4,30.23,ENE,78,5.0,5.0,59,0.00,,,0.00,VWS V14.01,2013-05-02 17:02:00,
2013-05-02 13:07:00,63.5,49.8,30.22,East,86,9.0,9.0,61,0.00,,,0.00,VWS V14.01,2013-05-02 17:07:00,
2013-05-02 13:12:00,63.2,47.7,30.22,West,269,2.0,3.0,57,0.00,,,0.00,VWS V14.01,2013-05-02 17:12:00,
2013-05-02 13:17:00,63.3,47.3,30.22,ENE,64,2.0,2.0,56,0.00,,,0.00,VWS V14.01,2013-05-02 17:17:00,
2013-05-02 13:22:00,63.5,48.0,30.22,ESE,108,8.0,8.0,57,0.00,,,0.00,VWS V14.01,2013-05-02 17:22:00,
2013-05-02 13:27:00,63.9,48.4,30.21,ENE,70,4.0,7.0,57,0.00,,,0.00,VWS V14.01,2013-05-02 17:27:00,
2013-05-02 13:32:00,64.1,48.1,30.21,SE,142,2.0,3.0,56,0.00,,,0.00,VWS V14.01,2013-05-02 17:32:00,
2013-05-02 13:37:00,64.9,49.8,30.21,ESE,109,6.0,6.0,58,0.00,,,0.00,VWS V14.01,2013-05-02 17:37:00,
2013-05-02 13:42:00,64.8,49.2,30.20,SE,146,0.0,1.0,57,0.00,,,0.00,VWS V14.01,2013-05-02 17:42:00,
2013-05-02 13:47:00,65.8,49.2,30.20,ENE,71,2.0,3.0,55,0.00,,,0.00,VWS V14.01,2013-05-02 17:47:00,
2013-05-02 13:52:00,66.6,49.0,30.20,ESE,115,6.0,7.0,53,0.00,,,0.00,VWS V14.01,2013-05-02 17:52:00,
2013-05-02 13:57:00,66.4,49.3,30.20,SE,143,1.0,1.0,54,0.00,,,0.00,VWS V14.01,2013-05-02 17:57:00,
2013-05-02 14:02:00,67.7,50.5,30.20,SE,141,4.0,4.0,54,0.00,,,0.00,VWS V14.01,2013-05-02 18:02:00,
2013-05-02 14:07:00,67.5,49.3,30.20,SSE,147,1.0,2.0,52,0.00,,,0.00,VWS V14.01,2013-05-02 18:07:00,
2013-05-02 14:12:00,68.3,49.5,30.19,SSW,210,3.0,5.0,51,0.00,,,0.00,VWS V14.01,2013-05-02 18:12:00,
2013-05-02 14:17:00,68.4,49.6,30.19,SSE,161,1.0,1.0,51,0.00,,,0.00,VWS V14.01,2013-05-02 18:17:00,
2013-05-02 14:22:00,69.6,51.2,30.19,ENE,74,5.0,7.0,52,0.00,,,0.00,VWS V14.01,2013-05-02 18:22:00,
2013-05-02 14:27:00,70.6,51.1,30.19,WNW,282,3.0,3.0,50,0.00,,,0.00,VWS V14.01,2013-05-02 18:27:00,
2013-05-02 14:32:00,70.3,50.8,30.18,ESE,109,6.0,6.0,50,0.00,,,0.00,VWS V14.01,2013-05-02 18:32:00,
2013-05-02 14:38:00,70.7,51.7,30.18,North,357,4.0,5.0,51,0.00,,,0.00,VWS V14.01,2013-05-02 18:38:00,
2013-05-02 14:43:00,70.8,50.7,30.18,West,270,1.0,1.0,49,0.00,,,0.00,VWS V14.01,2013-05-02 18:43:00,
2013-05-02 14:48:00,71.4,50.7,30.18,NW,306,4.0,7.0,48,0.00,,,0.00,VWS V14.01,2013-05-02 18:48:00,
2013-05-02 14:53:00,70.9,49.1,30.18,NNE,13,8.0,10.0,46,0.00,,,0.00,VWS V14.01,2013-05-02 18:53:00,
2013-05-02 14:58:00,70.4,49.2,30.18,NW,315,6.0,7.0,47,0.00,,,0.00,VWS V14.01,2013-05-02 18:58:00,
2013-05-02 15:03:00,70.5,49.9,30.18,NNE,17,12.0,12.0,48,0.00,,,0.00,VWS V14.01,2013-05-02 19:03:00,
2013-05-02 15:08:00,69.9,49.3,30.17,NE,46,13.0,14.0,48,0.00,,,0.00,VWS V14.01,2013-05-02 19:08:00,
2013-05-02 15:13:00,69.2,48.7,30.17,NE,46,10.0,12.0,48,0.00,,,0.00,VWS V14.01,2013-05-02 19:13:00,
2013-05-02 15:18:00,70.3,49.1,30.17,NE,37,7.0,7.0,47,0.00,,,0.00,VWS V14.01,2013-05-02 19:18:00,
2013-05-02 15:23:00,69.5,48.4,30.17,NNE,20,10.0,12.0,47,0.00,,,0.00,VWS V14.01,2013-05-02 19:23:00,
2013-05-02 15:28:00,68.4,48.5,30.17,NNE,26,11.0,11.0,49,0.00,,,0.00,VWS V14.01,2013-05-02 19:28:00,
2013-05-02 15:33:00,67.1,47.9,30.18,NE,52,11.0,12.0,50,0.00,,,0.00,VWS V14.01,2013-05-02 19:33:00,
2013-05-02 15:38:00,66.8,48.6,30.17,NE,51,11.0,11.0,52,0.00,,,0.00,VWS V14.01,2013-05-02 19:38:00,
2013-05-02 15:43:00,65.9,47.8,30.17,ENE,63,6.0,13.0,52,0.00,,,0.00,VWS V14.01,2013-05-02 19:43:00,
2013-05-02 15:48:00,65.9,47.8,30.17,NNE,26,12.0,12.0,52,0.00,,,0.00,VWS V14.01,2013-05-02 19:48:00,
2013-05-02 15:53:00,66.0,47.9,30.17,NNE,22,11.0,11.0,52,0.00,,,0.00,VWS V14.01,2013-05-02 19:53:00,
2013-05-02 15:58:00,64.9,47.9,30.17,NNE,26,12.0,12.0,54,0.00,,,0.00,VWS V14.01,2013-05-02 19:58:00,
2013-05-02 16:03:00,65.0,47.5,30.18,North,7,6.0,6.0,53,0.00,,,0.00,VWS V14.01,2013-05-02 20:03:00,
2013-05-02 16:08:00,65.5,48.4,30.17,ENE,57,9.0,11.0,54,0.00,,,0.00,VWS V14.01,2013-05-02 20:08:00,
2013-05-02 16:13:00,65.5,48.4,30.18,NNE,13,10.0,11.0,54,0.00,,,0.00,VWS V14.01,2013-05-02 20:13:00,
2013-05-02 16:18:00,66.5,48.9,30.17,ENE,67,8.0,10.0,53,0.00,,,0.00,VWS V14.01,2013-05-02 20:18:00,
2013-05-02 16:23:00,65.5,48.9,30.17,ENE,70,9.0,10.0,55,0.00,,,0.00,VWS V14.01,2013-05-02 20:23:00,
2013-05-02 16:28:00,66.2,48.1,30.17,NE,45,4.0,5.0,52,0.00,,,0.00,VWS V14.01,2013-05-02 20:28:00,
2013-05-02 16:33:00,65.8,47.7,30.17,ENE,65,6.0,7.0,52,0.00,,,0.00,VWS V14.01,2013-05-02 20:33:00,
2013-05-02 16:38:00,65.1,48.1,30.17,NE,49,9.0,9.0,54,0.00,,,0.00,VWS V14.01,2013-05-02 20:38:00,
2013-05-02 16:43:00,64.8,47.8,30.16,NE,45,9.0,10.0,54,0.00,,,0.00,VWS V14.01,2013-05-02 20:43:00,
2013-05-02 16:48:00,64.3,47.8,30.16,ENE,61,9.0,9.0,55,0.00,,,0.00,VWS V14.01,2013-05-02 20:48:00,
2013-05-02 16:53:00,64.7,48.2,30.16,NE,52,7.0,9.0,55,0.00,,,0.00,VWS V14.01,2013-05-02 20:53:00,
2013-05-02 16:58:00,65.0,48.9,30.15,NE,51,9.0,10.0,56,0.00,,,0.00,VWS V14.01,2013-05-02 20:58:00,
2013-05-02 17:03:00,65.1,48.5,30.15,NE,37,10.0,12.0,55,0.00,,,0.00,VWS V14.01,2013-05-02 21:03:00,
2013-05-02 17:08:00,65.2,49.1,30.15,NE,41,6.0,8.0,56,0.00,,,0.00,VWS V14.01,2013-05-02 21:08:00,
2013-05-02 17:13:00,65.2,48.2,30.15,NE,56,10.0,10.0,54,0.00,,,0.00,VWS V14.01,2013-05-02 21:13:00,
2013-05-02 17:18:00,65.3,48.2,30.15,NE,53,4.0,6.0,54,0.00,,,0.00,VWS V14.01,2013-05-02 21:18:00,
2013-05-02 17:23:00,65.2,48.6,30.15,NE,50,9.0,10.0,55,0.00,,,0.00,VWS V14.01,2013-05-02 21:23:00,
2013-05-02 17:28:00,65.2,48.6,30.14,ENE,61,10.0,10.0,55,0.00,,,0.00,VWS V14.01,2013-05-02 21:28:00,
2013-05-02 17:33:00,64.8,48.8,30.14,NNE,30,6.0,9.0,56,0.00,,,0.00,VWS V14.01,2013-05-02 21:33:00,
2013-05-02 17:38:00,64.3,47.8,30.14,NE,36,8.0,8.0,55,0.00,,,0.00,VWS V14.01,2013-05-02 21:38:00,
2013-05-02 17:44:00,63.8,47.3,30.14,ENE,71,6.0,8.0,55,0.00,,,0.00,VWS V14.01,2013-05-02 21:44:00,
2013-05-02 17:49:00,63.6,47.6,30.14,NNE,30,5.0,7.0,56,0.00,,,0.00,VWS V14.01,2013-05-02 21:49:00,
2013-05-02 17:54:00,63.2,47.3,30.14,NNE,14,9.0,11.0,56,0.00,,,0.00,VWS V14.01,2013-05-02 21:54:00,
2013-05-02 17:59:00,62.9,47.0,30.14,ENE,63,8.0,9.0,56,0.00,,,0.00,VWS V14.01,2013-05-02 21:59:00,
2013-05-02 18:04:00,62.3,46.0,30.14,NNE,24,3.0,5.0,55,0.00,,,0.00,VWS V14.01,2013-05-02 22:04:00,
2013-05-02 18:09:00,61.7,46.3,30.14,NNE,24,6.0,7.0,57,0.00,,,0.00,VWS V14.01,2013-05-02 22:09:00,
2013-05-02 18:14:00,62.1,47.6,30.14,NNE,27,9.0,9.0,59,0.00,,,0.00,VWS V14.01,2013-05-02 22:14:00,
2013-05-02 18:19:00,61.5,46.1,30.14,NE,49,10.0,10.0,57,0.00,,,0.00,VWS V14.01,2013-05-02 22:19:00,
2013-05-02 18:24:00,60.5,46.1,30.14,NNE,27,8.0,11.0,59,0.00,,,0.00,VWS V14.01,2013-05-02 22:24:00,
2013-05-02 18:29:00,60.0,46.1,30.14,North,352,3.0,4.0,60,0.00,,,0.00,VWS V14.01,2013-05-02 22:29:00,
2013-05-02 18:34:00,59.6,46.6,30.14,North,2,6.0,8.0,62,0.00,,,0.00,VWS V14.01,2013-05-02 22:34:00,
2013-05-02 18:39:00,58.8,46.7,30.14,NE,34,8.0,10.0,64,0.00,,,0.00,VWS V14.01,2013-05-02 22:39:00,
2013-05-02 18:44:00,58.4,47.5,30.14,North,7,3.0,8.0,67,0.00,,,0.00,VWS V14.01,2013-05-02 22:44:00,
2013-05-02 18:49:00,57.7,47.2,30.14,ENE,71,8.0,9.0,68,0.00,,,0.00,VWS V14.01,2013-05-02 22:49:00,
2013-05-02 18:54:00,57.8,47.7,30.14,NE,55,5.0,8.0,69,0.00,,,0.00,VWS V14.01,2013-05-02 22:54:00,
2013-05-02 18:59:00,57.9,47.8,30.14,NNE,18,5.0,7.0,69,0.00,,,0.00,VWS V14.01,2013-05-02 22:59:00,
2013-05-02 19:04:00,57.8,47.3,30.14,NNE,33,3.0,3.0,68,0.00,,,0.00,VWS V14.01,2013-05-02 23:04:00,
2013-05-02 19:09:00,57.7,47.6,30.14,NNE,17,8.0,9.0,69,0.00,,,0.00,VWS V14.01,2013-05-02 23:09:00,
2013-05-02 19:14:00,57.7,47.2,30.14,NE,36,12.0,12.0,68,0.00,,,0.00,VWS V14.01,2013-05-02 23:14:00,
2013-05-02 19:19:00,57.4,46.9,30.14,NE,54,6.0,8.0,68,0.00,,,0.00,VWS V14.01,2013-05-02 23:19:00,
2013-05-02 19:24:00,57.1,46.3,30.14,North,7,4.0,7.0,67,0.00,,,0.00,VWS V14.01,2013-05-02 23:24:00,
2013-05-02 19:29:00,57.3,46.0,30.13,NNE,33,14.0,14.0,66,0.00,,,0.00,VWS V14.01,2013-05-02 23:29:00,
2013-05-02 19:34:00,56.8,44.8,30.13,NNE,29,9.0,9.0,64,0.00,,,0.00,VWS V14.01,2013-05-02 23:34:00,
2013-05-02 19:39:00,56.7,44.7,30.13,NE,35,10.0,10.0,64,0.00,,,0.00,VWS V14.01,2013-05-02 23:39:00,
2013-05-02 19:44:00,56.4,43.6,30.14,NNE,31,5.0,8.0,62,0.00,,,0.00,VWS V14.01,2013-05-02 23:44:00,
2013-05-02 19:49:00,56.3,43.9,30.13,NE,39,7.0,8.0,63,0.00,,,0.00,VWS V14.01,2013-05-02 23:49:00,
2013-05-02 19:54:00,56.2,43.4,30.13,NE,48,6.0,7.0,62,0.00,,,0.00,VWS V14.01,2013-05-02 23:54:00,
2013-05-02 19:59:00,56.1,43.3,30.14,ESE,111,4.0,6.0,62,0.00,,,0.00,VWS V14.01,2013-05-02 23:59:00,
2013-05-02 20:04:00,56.1,43.7,30.14,ENE,75,4.0,5.0,63,0.00,,,0.00,VWS V14.01,2013-05-03 00:04:00,
2013-05-02 20:09:00,56.1,44.1,30.14,NE,38,4.0,6.0,64,0.00,,,0.00,VWS V14.01,2013-05-03 00:09:00,
2013-05-02 20:14:00,56.1,44.5,30.15,North,357,5.0,5.0,65,0.00,,,0.00,VWS V14.01,2013-05-03 00:14:00,
2013-05-02 20:19:00,56.0,44.0,30.16,NW,307,5.0,5.0,64,0.00,,,0.00,VWS V14.01,2013-05-03 00:19:00,
2013-05-02 20:24:00,54.7,45.1,30.16,NW,307,10.0,12.0,70,0.00,,,0.00,VWS V14.01,2013-05-03 00:24:00,
2013-05-02 20:29:00,52.2,43.1,30.16,WNW,295,5.0,5.0,71,0.00,,,0.00,VWS V14.01,2013-05-03 00:29:00,
2013-05-02 20:34:00,50.3,42.0,30.17,NNW,330,5.0,8.0,73,0.00,,,0.00,VWS V14.01,2013-05-03 00:34:00,
2013-05-02 20:39:00,48.9,41.0,30.17,NW,318,10.0,13.0,74,0.00,,,0.00,VWS V14.01,2013-05-03 00:39:00,
2013-05-02 20:44:00,47.7,40.2,30.17,NNW,331,13.0,13.0,75,0.00,,,0.00,VWS V14.01,2013-05-03 00:44:00,
2013-05-02 20:49:00,46.8,39.7,30.17,NW,313,10.0,10.0,76,0.00,,,0.00,VWS V14.01,2013-05-03 00:49:00,
2013-05-02 20:54:00,46.0,39.5,30.17,NNW,344,6.0,6.0,78,0.00,,,0.00,VWS V14.01,2013-05-03 00:54:00,
2013-05-02 20:59:00,45.6,39.2,30.18,NW,304,3.0,6.0,78,0.00,,,0.00,VWS V14.01,2013-05-03 00:59:00,
2013-05-02 21:04:00,45.3,38.9,30.18,NW,308,4.0,6.0,78,0.00,,,0.00,VWS V14.01,2013-05-03 01:04:00,
2013-05-02 21:10:00,45.0,38.6,30.18,North,7,10.0,10.0,78,0.00,,,0.00,VWS V14.01,2013-05-03 01:10:00,
2013-05-02 21:15:00,44.7,38.3,30.19,NW,313,11.0,12.0,78,0.00,,,0.00,VWS V14.01,2013-05-03 01:15:00,
2013-05-02 21:20:00,44.5,38.1,30.19,NNW,345,11.0,12.0,78,0.00,,,0.00,VWS V14.01,2013-05-03 01:20:00,
2013-05-02 21:25:00,44.2,38.1,30.19,NNW,331,5.0,8.0,79,0.00,,,0.00,VWS V14.01,2013-05-03 01:25:00,
2013-05-02 21:30:00,43.9,37.8,30.18,NW,317,8.0,10.0,79,0.00,,,0.00,VWS V14.01,2013-05-03 01:30:00,
2013-05-02 21:35:00,43.7,38.0,30.18,NNW,342,5.0,6.0,80,0.00,,,0.00,VWS V14.01,2013-05-03 01:35:00,
2013-05-02 21:40:00,43.4,37.7,30.18,NW,326,4.0,5.0,80,0.00,,,0.00,VWS V14.01,2013-05-03 01:40:00,
2013-05-02 21:45:00,43.3,37.9,30.18,NNW,333,2.0,3.0,81,0.00,,,0.00,VWS V14.01,2013-05-03 01:45:00,
2013-05-02 21:50:00,43.1,37.7,30.18,NW,319,4.0,5.0,81,0.00,,,0.00,VWS V14.01,2013-05-03 01:50:00,
2013-05-02 21:55:00,43.0,37.6,30.18,NNW,348,4.0,5.0,81,0.00,,,0.00,VWS V14.01,2013-05-03 01:55:00,
2013-05-02 22:00:00,42.8,37.4,30.18,NW,326,6.0,6.0,81,0.00,,,0.00,VWS V14.01,2013-05-03 02:00:00,
2013-05-02 22:05:00,42.6,37.2,30.18,NNW,346,2.0,3.0,81,0.00,,,0.00,VWS V14.01,2013-05-03 02:05:00,
2013-05-02 22:10:00,42.4,37.3,30.18,NW,315,3.0,4.0,82,0.00,,,0.00,VWS V14.01,2013-05-03 02:10:00,
2013-05-02 22:15:00,42.2,37.1,30.18,NNW,340,2.0,3.0,82,0.00,,,0.00,VWS V14.01,2013-05-03 02:15:00,
2013-05-02 22:20:00,42.1,37.0,30.18,NNW,344,4.0,5.0,82,0.00,,,0.00,VWS V14.01,2013-05-03 02:20:00,
2013-05-02 22:25:00,42.0,36.9,30.18,NNW,347,1.0,2.0,82,0.00,,,0.00,VWS V14.01,2013-05-03 02:25:00,
2013-05-02 22:30:00,41.8,36.7,30.17,NNW,336,2.0,4.0,82,0.00,,,0.00,VWS V14.01,2013-05-03 02:30:00,
2013-05-02 22:35:00,41.8,37.0,30.17,NW,313,5.0,7.0,83,0.00,,,0.00,VWS V14.01,2013-05-03 02:35:00,
2013-05-02 22:40:00,41.6,36.8,30.17,WNW,302,3.0,3.0,83,0.00,,,0.00,VWS V14.01,2013-05-03 02:40:00,
2013-05-02 22:45:00,41.5,36.7,30.17,NW,305,4.0,4.0,83,0.00,,,0.00,VWS V14.01,2013-05-03 02:45:00,
2013-05-02 22:50:00,41.5,36.7,30.17,WNW,303,3.0,3.0,83,0.00,,,0.00,VWS V14.01,2013-05-03 02:50:00,
2013-05-02 22:56:00,41.5,36.7,30.18,WNW,298,3.0,4.0,83,0.00,,,0.00,VWS V14.01,2013-05-03 02:56:00,
2013-05-02 23:01:00,41.3,36.5,30.18,NNW,348,5.0,5.0,83,0.00,,,0.00,VWS V14.01,2013-05-03 03:01:00,
2013-05-02 23:06:00,41.3,36.5,30.17,NW,317,3.0,3.0,83,0.00,,,0.00,VWS V14.01,2013-05-03 03:06:00,
2013-05-02 23:11:00,41.2,36.4,30.18,NNW,339,3.0,3.0,83,0.00,,,0.00,VWS V14.01,2013-05-03 03:11:00,
2013-05-02 23:16:00,41.2,36.4,30.18,NW,321,2.0,3.0,83,0.00,,,0.00,VWS V14.01,2013-05-03 03:16:00,
2013-05-02 23:21:00,41.0,36.5,30.18,NW,308,2.0,3.0,84,0.00,,,0.00,VWS V14.01,2013-05-03 03:21:00,
2013-05-02 23:26:00,40.9,36.5,30.18,NNW,338,2.0,2.0,84,0.00,,,0.00,VWS V14.01,2013-05-03 03:26:00,
2013-05-02 23:31:00,40.7,36.5,30.18,NW,317,3.0,4.0,85,0.00,,,0.00,VWS V14.01,2013-05-03 03:31:00,
2013-05-02 23:36:00,40.5,36.3,30.18,NW,325,1.0,2.0,85,0.00,,,0.00,VWS V14.01,2013-05-03 03:36:00,
2013-05-02 23:41:00,40.3,36.5,30.18,NW,304,2.0,2.0,86,0.00,,,0.00,VWS V14.01,2013-05-03 03:41:00,
2013-05-02 23:46:00,40.0,36.2,30.18,WNW,298,1.0,1.0,86,0.00,,,0.00,VWS V14.01,2013-05-03 03:46:00,
2013-05-02 23:51:00,39.8,36.0,30.18,WNW,287,2.0,2.0,86,0.00,,,0.00,VWS V14.01,2013-05-03 03:51:00,
2013-05-02 23:56:00,39.7,36.2,30.18,NW,324,2.0,2.0,87,0.00,,,0.00,VWS V14.01,2013-05-03 03:56:00,